User: anonymous   Login
Location: Unspecified
(0.0000°N, 0.0000°E)
Time: 07:16:20
(UTC+00:00)
Language:

Kosmos-2004 - Orbit

View from above orbital plane
View from above orbital plane
View from above satellite
View from above satellite

Ground track
Ground track

The orbit data is extracted from the following two-line orbital elements,

1 19826U 89017A   17178.52023453 +.00000028 +00000-0 +14261-4 0  9997
2 19826 082.9510 176.4699 0030048 354.6696 157.8151 13.72238178419069
Epoch (UTC): 27 June 2017 12:29:08
Eccentricity: 0.0030048
inclination: 82.9510°
perigee height: 969 km
apogee height: 1013 km
right ascension of ascending node: 176.4699°
argument of perigee: 354.6696°
revolutions per day: 13.72238178
mean anomaly at epoch: 157.8151°
orbit number at epoch: 41906

The dashed part of the orbit path shows where the satellite is in the earth's shadow,  

DLR